This is the latest recevied weather packets stored in our database for station/object WY7EM. If no packets are shown the sender has not sent any weather packets the latest 10 day(s).
| Time | Temp. | Humidity | Pressure | Rain* | Wind** | Luminosity | Snow |
|---|---|---|---|---|---|---|---|
| 1777658533 | 18.89° C | 23% | 1017.4 hPa | 0 mm | - | 795 W/m² | - |
| 1777658230 | 18.33° C | 24% | 1017.2 hPa | 0 mm | - | 787 W/m² | - |
| 1777657927 | 18.89° C | 24% | 1017.5 hPa | 0 mm | - | 776 W/m² | - |
| 1777657623 | 18.33° C | 24% | 1017.3 hPa | 0 mm | - | 765 W/m² | - |
| 1777657321 | 18.33° C | 25% | 1017.4 hPa | 0 mm | - | 755 W/m² | - |
| 1777657018 | 18.89° C | 24% | 1017.1 hPa | 0 mm | - | 743 W/m² | - |
| 1777656715 | 20° C | 23% | 1017.3 hPa | 0 mm | - | 731 W/m² | - |
| 1777656411 | 18.89° C | 24% | 1017.3 hPa | 0 mm | - | 718 W/m² | - |
| 1777656106 | 19.44° C | 23% | 1017.4 hPa | 0 mm | - | 706 W/m² | - |
| 1777655802 | 18.33° C | 25% | 1017.5 hPa | 0 mm | - | 694 W/m² | - |
| 1777655499 | 18.33° C | 25% | 1017.4 hPa | 0 mm | - | 681 W/m² | - |
| 1777655196 | 18.89° C | 24% | 1017.5 hPa | 0 mm | - | 668 W/m² | - |
| 1777654893 | 18.33° C | 25% | 1017.4 hPa | 0 mm | - | 655 W/m² | - |
| 1777654591 | 17.78° C | 26% | 1017.4 hPa | 0 mm | - | 642 W/m² | - |
| 1777654287 | 17.78° C | 25% | 1017.7 hPa | 0 mm | - | 630 W/m² | - |
| 1777653986 | 17.78° C | 26% | 1017.5 hPa | 0 mm | - | 619 W/m² | - |
| 1777653683 | 17.78° C | 25% | 1017.4 hPa | 0 mm | - | 605 W/m² | - |
| 1777653378 | 18.33° C | 25% | 1017.5 hPa | 0 mm | - | 590 W/m² | - |
| 1777653076 | 17.22° C | 25% | 1017.3 hPa | 0 mm | - | 575 W/m² | - |
| 1777652772 | 18.33° C | 25% | 1017.4 hPa | 0 mm | - | 560 W/m² | - |
| 1777652469 | 17.78° C | 26% | 1017.2 hPa | 0 mm | - | 545 W/m² | - |
| 1777652166 | 16.67° C | 26% | 1017.4 hPa | 0 mm | - | 530 W/m² | - |
| 1777651863 | 17.22° C | 27% | 1017.2 hPa | 0 mm | - | 516 W/m² | - |
| 1777651560 | 16.67° C | 27% | 1017.3 hPa | 0 mm | - | 500 W/m² | - |
| 1777651256 | 16.67° C | 27% | 1017.1 hPa | 0 mm | - | 484 W/m² | - |
* Rain latest hour (hover to see other rain measurements)
** Current wind speed in m/s (hover to see current wind gust speed)